{"data":{"norad_id":57647,"epoch":"2026-09-19T18:58:30.559872Z","epoch_age_seconds":192931,"freshness":"STALE","line1":"1 57647U 23122R   26262.79063148 -.00000253  00000+0  34611-6 0  9996","line2":"2 57647  43.0038  76.1985 0001473 277.2144  82.8540 15.27576155171894","mean_motion":15.27576155,"eccentricity":0.0001473,"inclination_deg":43.0038,"raan_deg":76.1985,"arg_perigee_deg":277.2144,"mean_anomaly_deg":82.854,"bstar":3.4611e-7,"rev_number":17189,"period_min":94.266985988663,"perigee_km":482.04995496917,"apogee_km":484.0712637849,"semimajor_km":6861.197609377,"source":"CELESTRAK","updated_at":"2026-09-21T09:00:33.668299Z"}}